Weather in Uspenka

Russia / Tyva Republic     51°14′05″N   94°14′50″E
temp.,
°C
wind,
m/s
gust,
m/s
humid.,
%
clouds,
%
prec.,
mm/h
press.,
hPa
HPBL,
m
26 july, mon
mon2601:00+15ssw228326 0.3 100712
04:00+15ssw118487 0.1 100611
07:00+17nne007770 0.1 1006154
10:00+22n226382 0.1 1005946
13:00+25wnw225195 0.8 10031583
16:00+23w345869 1.2 1003681
19:00+23wsw355895 2.1 1002514
22:00+18ssw458394 1.6 100476
27 july, tue
tue2701:00+17sse2390100 6.9 100458
04:00+16sse2292100 2.1 100441
07:00+17sse1187100 3.6 100548
10:00+20ene327194 0.7 1004595
13:00+24e325098 2.0 10021295
16:00+25ene3247100 1.6 10011715
19:00+24nne234971 2.2 1001408
22:00+17sw22794 0.1 100322
28 july, wed
wed2801:00+16sw228193 0.1 100315
04:00+15w2282100 0.0 100340
07:00+15wsw2394100 4.8 1003111
10:00+15nw3497100 6.7 1003289
13:00+19nw447780 8.5 1003823
16:00+17nw577055 1.7 1004874
19:00+17nw57580 1.8 1005917
22:00+12sw45716 0.0 100778
29 july, thu
thu2901:00+11sw33712 0.0 100934
04:00+10sw217495 0.0 100911
07:00+13wnw12700 0.0 1010215
10:00+17nnw33500 0.0 10101045
13:00+20nnw33380 0.0 10081695
16:00+22nw24330 0.0 10081982
19:00+21ssw114020 0.0 100749
22:00+14ssw33512 0.0 100932
30 july, fri
fri3001:00+13ssw2254100 0.0 100916
04:00+11ssw2156100 0.0 101013
07:00+14ne0151100 0.0 1010113
10:00+18ne2243100 0.0 1009623
13:00+22nne323473 0.0 10081432
16:00+24nnw432991 0.0 10071998
19:00+18w485791 0.0 1009537
22:00+15sw3469100 0.2 101195